Weather History for KBRL - May, 2014

Change the Weather History Date:

Monday, May 12, 2014

  Actual Average Record
Temperature  
Mean Temperature 72 °F 62 °F  
Max Temperature 87 °F 73 °F 94 °F (1956)
Min Temperature 57 °F 52 °F 34 °F (1960)
Degree Days  
Heating Degree Days 0 5  
Month to date heating degree days 52 70  
Since 1 July heating degree days 6733 5532  
Cooling Degree Days 7 2  
Month to date cooling degree days 35 17  
Year to date cooling degree days 43 37  
Growing Degree Days 25 (Base 50)    
Moisture  
Dew Point 66 °F    
Average Humidity 72    
Maximum Humidity 93    
Minimum Humidity 51    
Precipitation  
Precipitation 0.95 in 0.15 in 0.95 in (2014)
Month to date precipitation 1.12 1.91  
Year to date precipitation 10.70 11.32  
Sea Level Pressure  
Sea Level Pressure 29.80 in    
Wind  
Wind Speed 14 mph (SSW)    
Max Wind Speed 30 mph    
Max Gust Speed 42 mph    
Visibility 8 miles    
Events Rain , Thunderstorm    
T = Trace of Precipitation, MM = Missing Value Source: NWS Daily Summary

Daily Weather History Graph

Daily Weather History Graph

Search for Another Location

Airport or City:

Trip Planner

Search our weather history database for the weather conditions in past years. The results will help you decide how hot, cold, wet, or windy it might be!

Date:

Astronomy

May. 12, 2014 Rise Set
Actual Time 5:50 AM CDT 8:12 PM CDT
Civil Twilight 5:19 AM CDT 8:43 PM CDT
Nautical Twilight 4:41 AM CDT 9:21 PM CDT
Astronomical Twilight 3:59 AM CDT 10:03 PM CDT
Moon 6:09 PM CDT (5/12) 4:30 AM CDT (5/12)
Length of Visible Light 15h 23m
Length of Day
14h 21m
Waxing Gibbous, 95% of the Moon is Illuminated
May 12
Waxing Gibbous
May 14
Full
May 21
Last Quarter
May 28
New
Jun 5
First Quarter

Hourly Weather History & Observations

Time (CDT) Temp. Heat Index Dew Point Humidity Pressure Visibility Wind Dir Wind Speed Gust Speed Precip Events Conditions
12:53 AM 73.9 °F - 66.0 °F 76% 29.77 in 10.0 mi South 16.1 mph - N/A   Clear
1:53 AM 73.9 °F - 66.0 °F 76% 29.77 in 10.0 mi South 13.8 mph - N/A   Clear
2:53 AM 72.0 °F - 66.9 °F 84% 29.80 in 10.0 mi SSW 8.1 mph - N/A   Overcast
3:53 AM 69.1 °F - 66.0 °F 90% 29.79 in 10.0 mi South 5.8 mph - N/A   Clear
4:53 AM 71.1 °F - 66.9 °F 87% 29.79 in 10.0 mi South 11.5 mph - N/A   Clear
5:53 AM 72.0 °F - 66.9 °F 84% 29.78 in 10.0 mi South 11.5 mph - N/A   Clear
6:53 AM 72.0 °F - 68.0 °F 87% 29.78 in 10.0 mi South 15.0 mph - N/A   Partly Cloudy
7:53 AM 73.9 °F - 68.0 °F 82% 29.78 in 10.0 mi South 19.6 mph 28.8 mph N/A   Scattered Clouds
8:53 AM 73.4 °F - 68.0 °F 83% 29.81 in 10.0 mi SSW 19.6 mph 26.5 mph N/A   Partly Cloudy
9:53 AM 75.9 °F - 68.0 °F 76% 29.80 in 10.0 mi South 17.3 mph 25.3 mph N/A   Clear
10:53 AM 78.1 °F - 66.9 °F 68% 29.82 in 10.0 mi SSW 17.3 mph 29.9 mph N/A   Overcast
11:53 AM 79.0 °F - 68.0 °F 69% 29.82 in 10.0 mi SSW 15.0 mph - N/A   Mostly Cloudy
12:53 PM 82.0 °F 84.9 °F 68.0 °F 62% 29.80 in 10.0 mi SSW 17.3 mph 31.1 mph N/A   Mostly Cloudy
1:53 PM 84.0 °F 86.5 °F 66.9 °F 56% 29.78 in 10.0 mi SSW 18.4 mph 27.6 mph N/A   Mostly Cloudy
2:53 PM 86.0 °F 88.2 °F 66.0 °F 51% 29.76 in 10.0 mi SW 19.6 mph - N/A   Partly Cloudy
3:53 PM 86.0 °F 88.2 °F 66.0 °F 51% 29.73 in 10.0 mi South 18.4 mph - N/A   Partly Cloudy
4:53 PM 84.0 °F 86.5 °F 66.9 °F 56% 29.73 in 10.0 mi South 11.5 mph - N/A   Partly Cloudy
5:53 PM 82.9 °F 84.6 °F 64.9 °F 54% 29.72 in 10.0 mi South 11.5 mph 19.6 mph N/A   Partly Cloudy
6:22 PM 82.9 °F 84.6 °F 64.9 °F 54% 29.74 in 10.0 mi SSW 11.5 mph - N/A Thunderstorm Thunderstorm
6:37 PM 69.1 °F - 64.0 °F 84% 29.76 in 8.0 mi West 19.6 mph 41.4 mph 0.00 in Rain , Thunderstorm Light Rain
6:51 PM 68.0 °F - 64.4 °F 88% 29.80 in 1.5 mi WSW 18.4 mph 34.5 mph 0.25 in Rain , Thunderstorm Heavy Thunderstorms and Rain
6:53 PM 66.9 °F - 64.9 °F 93% 29.78 in 1.2 mi SW 17.3 mph 34.5 mph 0.30 in Rain , Thunderstorm Heavy Thunderstorms and Rain
6:57 PM 66.0 °F - 64.9 °F 96% 29.78 in 1.0 mi SW 16.1 mph 34.5 mph 0.07 in Rain , Thunderstorm Heavy Thunderstorms and Rain
7:07 PM 64.9 °F - 64.9 °F 100% 29.79 in 2.0 mi SW 13.8 mph - 0.13 in Rain , Thunderstorm Thunderstorms and Rain
7:15 PM 66.0 °F - 66.0 °F 100% 29.79 in 3.0 mi SW 10.4 mph - 0.18 in Rain , Thunderstorm Heavy Thunderstorms and Rain
7:25 PM 66.0 °F - 64.9 °F 96% 29.78 in 2.5 mi West 11.5 mph - 0.25 in Rain , Thunderstorm Heavy Thunderstorms and Rain
7:33 PM 66.0 °F - 64.9 °F 96% 29.80 in 4.0 mi West 15.0 mph - 0.28 in Rain , Thunderstorm Thunderstorms and Rain
7:48 PM 68.0 °F - 68.0 °F 100% 29.77 in 2.5 mi South 9.2 mph - 0.37 in Rain , Thunderstorm Thunderstorms and Rain
7:53 PM 68.0 °F - 66.9 °F 96% 29.76 in 5.0 mi South 6.9 mph - 0.38 in Rain , Thunderstorm Light Thunderstorms and Rain
8:23 PM 68.0 °F - 66.9 °F 96% 29.80 in 7.0 mi South 9.2 mph - 0.03 in Rain Light Rain
8:30 PM 68.0 °F - 66.9 °F 96% 29.82 in 6.0 mi South 9.2 mph - 0.04 in Rain , Thunderstorm Light Rain
8:53 PM 68.0 °F - 66.9 °F 96% 29.83 in 7.0 mi South 6.9 mph - 0.09 in Rain , Thunderstorm Light Thunderstorms and Rain
9:12 PM 66.9 °F - 66.9 °F 100% 29.84 in 6.0 mi SSE 9.2 mph - 0.05 in Rain , Thunderstorm Light Rain
9:20 PM 66.9 °F - 66.0 °F 97% 29.87 in 7.0 mi South 11.5 mph - 0.07 in Rain Rain
9:39 PM 66.9 °F - 66.0 °F 97% 29.88 in 9.0 mi South 6.9 mph - 0.10 in Rain , Thunderstorm Light Rain
9:50 PM 66.2 °F - 66.2 °F 100% 29.88 in 10.0 mi SW 5.8 mph - 0.11 in Rain Light Rain
9:53 PM 66.2 °F - 66.2 °F 100% 29.88 in 8.0 mi SW 5.8 mph - N/A Rain Light Rain
10:00 PM 66.9 °F - 66.0 °F 97% 29.87 in 4.0 mi SW 6.9 mph - 0.02 in Rain Rain
10:11 PM 66.9 °F - 66.0 °F 97% 29.88 in 6.0 mi South 6.9 mph - 0.04 in Rain , Thunderstorm Light Thunderstorms and Rain
10:26 PM 66.9 °F - 66.0 °F 97% 29.87 in 8.0 mi South 6.9 mph - 0.05 in Rain , Thunderstorm Light Rain
10:29 PM 66.9 °F - 66.0 °F 97% 29.87 in 9.0 mi SSW 5.8 mph - 0.05 in Rain Light Rain
10:53 PM 66.9 °F - 66.0 °F 97% 29.84 in 10.0 mi WSW 6.9 mph - 0.05 in   Overcast
11:53 PM 62.1 °F - 60.1 °F 93% 29.83 in 9.0 mi WNW 12.7 mph 23.0 mph N/A   Overcast